Flag for South Africa Weather past 2 weeks in Bloemfontein, South Africa

Now
66 °F

Mild.


Feels Like: 66 °F
Forecast: 62 / 76 °F
Wind: 10 mph from East

Location: Bloemfontein Airport

Current Time: Jan 30, 2015 at 11:10:46 PM

Latest Report: Jan 30, 2015 at 10:00 PM


Visibility: N/A

Pressure: 30.12 "Hg

Humidity: 73%

Dew point: 57 °F

Location of BloemfonteinLocation

Historic Weather in Bloemfontein — Graph

°F

Bloemfontein temperature yesterday

Maximum temperature yesterday: 88 °F (at 2:00 PM)
Minimum temperature yesterday: 61 °F (at 4:00 AM)
Average temperature yesterday: 75 °F

Past Weeks' High & Low Weather Summary

 TemperatureHumidityPressure
High95 °F (Jan 24, 2:00 PM)94% (Jan 28, 5:00 AM)30.30 "Hg (Jan 28, 5:00 AM)
Low50 °F (Jan 18, 5:00 AM)11% (Jan 23, 2:00 PM)29.83 "Hg (Jan 16, 5:00 PM)
Average74 °F46%30.08 "Hg
* Reported Jan 15 9:00 PM — Jan 30 9:00 PM, Bloemfontein, Weather by CustomWeather, © 2014

Note: Actual official high and low records may vary slightly from our data, if they occured in-between our weather recording intervals... More about our weather records

Advertising

Bloemfontein weather history for previous 24 hours

 ConditionsComfort  
Time TempWeatherWind HumidityBarometerVisibility
9:00 PM
Jan 30
66 °FMild.10 mph73%30.12 "HgN/A
8:00 PM64 °FPassing clouds.17 mph83%30.09 "HgN/A
7:00 PM66 °FThunderstorms. Passing clouds.16 mph83%30.09 "Hg5 mi
6:00 PM84 °FPassing clouds.8 mph31%30.01 "HgN/A
5:00 PM88 °FSunny.10 mph27%30.01 "Hg10 mi
4:00 PM88 °FPassing clouds.8 mph27%30.01 "HgN/A
3:00 PM88 °FScattered clouds.10 mph31%30.04 "HgN/A
2:00 PM86 °FScattered clouds.7 mph24%30.07 "HgN/A
1:00 PM86 °FScattered clouds.9 mph35%30.09 "HgN/A
12:00 PM82 °FPassing clouds.12 mph42%30.12 "HgN/A
11:00 AM81 °FSunny.13 mph37%30.15 "Hg10 mi
10:00 AM77 °FPassing clouds.14 mph47%30.15 "HgN/A
9:00 AM73 °FPassing clouds.13 mph57%30.18 "HgN/A
8:00 AM70 °FSunny.10 mph60%30.18 "Hg10 mi
7:00 AM66 °FSunny.12 mph68%30.18 "Hg10 mi
6:00 AM64 °FSunny.8 mph73%30.15 "Hg10 mi
5:00 AM61 °FSunny.5 mph77%30.15 "Hg10 mi
4:00 AM64 °FMild.10 mph73%30.12 "HgN/A
3:00 AM64 °FMild.10 mph73%30.15 "HgN/A
2:00 AM64 °FMild.5 mph73%30.15 "HgN/A
1:00 AM68 °FMild.10 mph64%30.15 "HgN/A
12:00 AM70 °FMild.16 mph60%30.12 "HgN/A
11:00 PM
Jan 29
72 °FMild.3 mph47%30.12 "HgN/A
Weather by CustomWeather, © 2014

See weather overviewHow to use our weather pages